Hourly Data Report for October 02, 2015

All times are specified in Local Standard Time (LST). Add 1 hour to adjust for Daylight Saving Time where and when it is observed.

KITCHENER/WATERLOO
ONTARIO

43°27'39.000" N
80°22'43.000" W
321.60 m
6144239
71368
YKF

Download Data

Hourly Data (October 2015)
Hourly Data Report for October 2, 2015
Temp Definition
°C
Dew Point Temp Definition
°C
Rel Hum Definition
%
Wind Dir Definition
10's deg

Wind Spd Definition
km/h
Visibility Definition
km
Stn Press Definition
kPa
Hmdx Definition


Wind Chill Definition


Weather Definition


TIME
00:00 Legend Double Dagger 7.3 -0.3 59 5 24 16.1 99.05     LegendNANA
01:00 Legend Double Dagger 6.6 -0.1 62 5 18 16.1 99.07     LegendNANA
02:00 Legend Double Dagger 6.3 -0.4 62 5 21 16.1 99.06     LegendNANA
03:00 Legend Double Dagger 6.0 -0.5 63 4 21 16.1 99.06     LegendNANA
04:00 Legend Double Dagger 5.5 -0.3 66 4 21 16.1 99.05     LegendNANA
05:00 Legend Double Dagger 5.3 -0.4 67 4 15 16.1 99.10     LegendNANA
06:00 Legend Double Dagger 4.8 -0.5 69 4 18 16.1 99.14     LegendNANA
07:00 Legend Double Dagger 4.7 -0.7 68 4 17 16.1 99.13     LegendNANA
08:00 Legend Double Dagger 5.8 -0.2 65 5 21 16.1 99.17     LegendNANA
09:00 Legend Double Dagger 6.7 0.3 64 5 30 16.1 99.20     LegendNANA
10:00 Legend Double Dagger 7.7 1.1 63 6 26 16.1 99.21     LegendNANA
11:00 Legend Double Dagger 9.0 1.0 57 5 22 16.1 99.19     LegendNANA
12:00 Legend Double Dagger 9.4 -0.2 51 6 28 16.1 99.17     LegendNANA
13:00 Legend Double Dagger 10.3 -0.1 49 7 30 16.1 99.12     LegendNANA
14:00 Legend Double Dagger 11.7 -0.6 42 7 39 16.1 99.08     LegendNANA
15:00 Legend Double Dagger 11.6 -1.2 41 6 32 16.1 99.08     LegendNANA
16:00 Legend Double Dagger 10.5 -1.5 43 6 32 16.1 99.09     LegendNANA
17:00 Legend Double Dagger 9.7 -2.5 42 5 24 16.1 99.13     LegendNANA
18:00 Legend Double Dagger 8.8 -1.7 48 5 21 16.1 99.14     LegendNANA
19:00 Legend Double Dagger 8.2 -1.6 50 5 22 16.1 99.13     LegendNANA
20:00 Legend Double Dagger 8.0 -2.4 48 6 28 16.1 99.15     LegendNANA
21:00 Legend Double Dagger 7.5 -2.2 50 5 21 16.1 99.16     LegendNANA
22:00 Legend Double Dagger 7.1 -1.6 54 5 24 16.1 99.14     LegendNANA
23:00 Legend Double Dagger 6.5 -1.4 57 5 21 16.1 99.10     LegendNANA

Notes on Data Quality.

Legend

  • E = Estimated
  • M = Missing
  • NA = Not Available
  • ‡ = Partner data that is not subject to review by the National Climate Archives
Date modified: